[[{"header":{"parameterUnit":"m.s-1","parameterCategory":2,"la1":30.2991,"la2":30.254,"lo1":-89.0895,"lo2":-89.0444,"dy":0.0017,"dx":0.0017,"nx":28,"ny":28,"refTime":"2024-02-15T09:00:00:Z","depth":"0","parameterNumber":2,"parameterNumberName":"U-component_of_CURRENTS"},"data":[0,0,0,0,0,0,0,0,0,0,0,0,0,0,0,0,0,0,0,0,0,0,0,0,0,0,0,0,0,0,0,0,0,0,0,0,0,0,0,0,0,0,0,0,0,0,0,0,0,0,0,0,0,0,0,0,0,0,-0.3255,-0.3255,0,-0.3273,-0.3273,-0.3273,-0.3238,-0.3237,-0.3236,-0.3235,-0.3188,-0.3188,-0.3187,0,0,0,0,0,0,0,0,0,0,0,0,0,-0.3203,-0.3204,-0.3255,-0.3255,-0.3256,-0.3273,-0.3273,-0.3273,-0.3238,-0.3237,-0.3236,-0.3235,-0.3188,-0.3188,-0.3187,0,0,0,0,0,0,0,0,0,0,0,0,0,-0.3221,-0.3204,-0.3255,-0.3243,-0.3242,-0.3273,-0.3273,-0.3273,-0.3239,-0.3237,-0.3236,-0.3235,-0.3189,-0.3188,-0.3187,-0.3211,0,0,-0.3185,-0.3185,0,0,0,0,0,0,0,0,-0.322,-0.3223,-0.3244,-0.3243,-0.3243,-0.3254,-0.3238,-0.325,-0.3239,-0.3237,-0.3235,-0.3234,-0.3207,-0.3205,-0.3208,-0.3209,-0.3207,-0.3185,-0.3185,-0.3185,-0.3185,0,0,0,0,0,0,0,-0.3219,-0.3222,-0.3259,-0.3245,-0.3244,-0.3241,-0.3242,-0.324,-0.3226,-0.3237,-0.3235,-0.3242,-0.3206,-0.3209,-0.3207,-0.3206,-0.3185,-0.3185,-0.3185,-0.3184,-0.3169,-0.3169,0,0,0,0,0,0,-0.3223,-0.3221,-0.3259,-0.326,-0.3231,-0.3243,-0.3244,-0.325,-0.3228,-0.3224,-0.3243,-0.324,-0.3211,-0.3208,-0.3205,-0.3215,-0.3185,-0.3184,-0.3184,-0.3169,-0.3169,-0.3169,0,0,0,0,0,0,-0.3222,-0.3227,-0.3258,-0.3243,-0.3247,-0.3246,-0.3253,-0.3251,-0.3255,-0.3233,-0.3228,-0.3249,-0.321,-0.3206,-0.3213,-0.3213,-0.3184,-0.3183,-0.3169,-0.3169,-0.3169,-0.3245,0,0,0,0,0,0,-0.3221,-0.3226,-0.3231,-0.3244,-0.3248,-0.3284,-0.3254,-0.3252,-0.3262,-0.3258,-0.3237,-0.3231,-0.3208,-0.3214,-0.3212,-0.3212,-0.3183,-0.3169,-0.3169,-0.3169,-0.3243,-0.3248,-0.3252,0,0,0,0,0,-0.3219,-0.3231,-0.3231,-0.3236,-0.3256,-0.3285,-0.3288,-0.328,-0.3264,-0.3275,-0.3261,-0.3231,-0.321,-0.3215,-0.3213,-0.3212,-0.317,-0.3169,-0.3169,-0.3241,-0.3247,-0.3252,0,0,0,0,0,0,-0.3206,-0.323,-0.323,-0.3247,-0.3269,-0.328,-0.3293,-0.3288,-0.3288,-0.3285,-0.3252,-0.3247,-0.3228,-0.3222,-0.3227,-0.3203,-0.3177,-0.3176,-0.3231,-0.3237,-0.3242,-0.3276,-0.3182,0,0,0,0,0,-0.321,-0.3236,-0.325,-0.3273,-0.3281,-0.329,-0.33,-0.3302,-0.3305,-0.3303,-0.3285,-0.3261,-0.3228,-0.3237,-0.3201,-0.3227,-0.3183,-0.3215,-0.322,-0.3224,-0.3248,-0.3222,-0.3228,-0.3169,-0.3169,-0.3169,0,0,-0.3219,-0.3234,-0.325,-0.3274,-0.3289,-0.3317,-0.3292,-0.3321,-0.3342,-0.33,-0.3314,-0.3267,-0.3229,-0.3227,-0.3221,-0.323,-0.32,-0.3224,-0.3228,-0.325,-0.3223,-0.3229,-0.3234,-0.3169,-0.3169,-0.3169,0,0,-0.3255,-0.3258,-0.3291,-0.3308,-0.3338,-0.3347,-0.3358,-0.3371,-0.337,-0.3387,-0.3336,-0.3315,-0.3287,-0.3268,-0.3251,-0.3271,-0.3201,-0.3238,-0.3327,-0.3302,-0.3307,-0.3311,-0.3193,-0.3187,-0.3272,-0.3273,-0.3273,0,-0.3267,-0.33,-0.3306,-0.3337,-0.3364,-0.3362,-0.3405,-0.3407,-0.3421,-0.3431,-0.3397,-0.3348,-0.3308,-0.3314,-0.3309,-0.3283,-0.3228,-0.3312,-0.331,-0.3314,-0.3318,-0.3196,-0.3188,-0.3276,-0.3276,-0.3275,-0.3275,0,-0.3312,-0.3348,-0.337,-0.3412,-0.3442,-0.348,-0.3492,-0.3508,-0.3499,-0.3498,-0.3486,-0.3438,-0.3414,-0.3385,-0.3355,-0.3358,-0.3289,-0.3294,-0.3304,-0.3329,-0.3197,-0.3187,-0.3282,-0.328,-0.3279,-0.3278,0,0,-0.329,-0.3392,-0.3386,-0.3438,-0.3486,-0.3517,-0.356,-0.3599,-0.3607,-0.3605,-0.361,-0.3568,-0.3533,-0.3511,-0.3463,-0.3463,-0.3398,-0.3405,-0.3402,-0.3299,-0.3271,-0.3148,-0.3124,-0.3412,-0.3412,-0.3413,-0.3144,0,-0.3319,-0.3418,-0.3447,-0.3534,-0.3591,-0.3616,-0.3647,-0.368,-0.3675,-0.3665,-0.3642,-0.3598,-0.3583,-0.3542,-0.3551,-0.3417,-0.3388,-0.3465,-0.3253,-0.3245,-0.3146,-0.3116,-0.3003,-0.2751,-0.3134,-0.3132,-0.3131,0,-0.3303,-0.3395,-0.3499,-0.3618,-0.3635,-0.3671,-0.3727,-0.3755,-0.3753,-0.3739,-0.374,-0.368,-0.3648,-0.3619,-0.3491,-0.3539,-0.3419,-0.3334,-0.3322,-0.3189,-0.3108,-0.2801,-0.2718,-0.2699,-0.3115,-0.3117,-0.3118,0,-0.3272,-0.3399,-0.3498,-0.3535,-0.3663,-0.37,-0.3745,-0.3772,-0.3742,-0.3764,-0.3685,-0.3715,-0.36,-0.3565,-0.3374,-0.3429,-0.3188,-0.3235,-0.3013,-0.2998,-0.2852,-0.2826,-0.2747,-0.3155,-0.3156,-0.3157,-0.3158,0,-0.3281,-0.3342,-0.3485,-0.3542,-0.3618,-0.37,-0.372,-0.3768,-0.3729,-0.3639,-0.3692,-0.3568,-0.3579,-0.3427,-0.3356,-0.3111,-0.3163,-0.3008,-0.2939,-0.2864,-0.2843,-0.2781,-0.283,-0.3147,-0.3149,-0.3151,-0.3153,0,-0.3232,-0.3329,-0.3436,-0.3583,-0.3609,-0.3656,-0.3663,-0.3618,-0.3623,-0.3487,-0.3461,-0.3389,-0.3226,-0.3176,-0.3032,-0.2981,-0.2771,-0.2734,-0.2596,-0.252,-0.2374,-0.2431,-0.2273,-0.221,-0.2487,-0.2483,-0.2479,0,-0.3223,-0.327,-0.3427,-0.3434,-0.3495,-0.3545,-0.3508,-0.3558,-0.3467,-0.3327,-0.3201,-0.3048,-0.2889,-0.2648,-0.2584,-0.2443,-0.25,-0.2251,-0.2385,-0.2335,-0.2348,-0.2406,-0.2372,-0.217,-0.2164,-0.2159,-0.2155,0,-0.3158,-0.3195,-0.3274,-0.3318,-0.3309,-0.3301,-0.3261,-0.3169,-0.3132,-0.3021,-0.28,-0.2682,-0.247,-0.2308,-0.2162,-0.2084,-0.2228,-0.2146,-0.2153,-0.2146,-0.2146,-0.2059,-0.2322,-0.2112,-0.2116,-0.2119,-0.2122,-0.2123,-0.3016,-0.3044,-0.3086,-0.3115,-0.3091,-0.2971,-0.2875,-0.2801,-0.2646,-0.2416,-0.2443,-0.2246,-0.2142,-0.1946,-0.1851,-0.1721,-0.1847,-0.1723,-0.1794,-0.1854,-0.1829,-0.1959,-0.1663,-0.1664,-0.1666,-0.1667,-0.1668,0,-0.2765,-0.2809,-0.2837,-0.2828,-0.27,-0.2775,-0.2599,-0.2435,-0.2201,-0.2108,-0.1972,-0.1852,-0.1693,-0.1637,-0.1517,-0.1425,-0.1433,-0.1404,-0.1497,-0.1481,-0.1609,-0.1636,-0.1252,-0.1252,-0.1252,-0.1252,-0.1252,-0.1252,-0.2614,-0.2552,-0.2608,-0.2396,-0.2364,-0.2116,-0.197,-0.1801,-0.1676,-0.1448,-0.14,-0.1353,-0.1412,-0.1527,-0.1406,-0.1322,-0.1331,-0.1253,-0.1313,-0.1463,-0.1501,-0.1537,-0.1573,-0.1182,-0.1182,-0.1122,-0.1122,-0.1122]},{"header":{"parameterUnit":"m.s-1","parameterCategory":2,"la1":30.2991,"la2":30.254,"lo1":-89.0895,"lo2":-89.0444,"dy":0.0017,"dx":0.0017,"nx":28,"ny":28,"refTime":"2024-02-15T09:00:00:Z","depth":"0","parameterNumber":3,"parameterNumberName":"V-component_of_CURRENTS"},"data":[0,0,0,0,0,0,0,0,0,0,0,0,0,0,0,0,0,0,0,0,0,0,0,0,0,0,0,0,0,0,0,0,0,0,0,0,0,0,0,0,0,0,0,0,0,0,0,0,0,0,0,0,0,0,0,0,0,0,-0.0059,-0.0057,0,0.0144,0.0146,0.0148,0.0189,0.0188,0.0187,0.0186,0.0423,0.043,0.0438,0,0,0,0,0,0,0,0,0,0,0,0,0,-0.0259,-0.0257,-0.0059,-0.0057,-0.0054,0.0143,0.0146,0.0149,0.019,0.0188,0.0187,0.0185,0.0421,0.0429,0.0439,0,0,0,0,0,0,0,0,0,0,0,0,0,-0.0128,-0.0256,-0.006,-0.0008,-0.0001,0.0143,0.0146,0.0149,0.019,0.0188,0.0186,0.0184,0.0418,0.0429,0.044,0.0549,0,0,0.0474,0.0479,0,0,0,0,0,0,0,0,-0.0136,-0.0122,-0.0018,-0.0011,-0.0003,0.0141,0.0163,0.0286,0.0191,0.0115,0.0186,0.0183,0.0335,0.0353,0.0392,0.0561,0.0571,0.0475,0.0482,0.0487,0.049,0,0,0,0,0,0,0,-0.0145,-0.0129,0.0019,-0.0015,-0.0006,0.0058,0.0073,0.0187,0.0232,0.0121,0.0126,0.0153,0.0339,0.0381,0.0398,0.0574,0.0475,0.0485,0.0492,0.0497,0.088,0.0883,0,0,0,0,0,0,-0.0171,-0.0138,0.0012,0.0025,-0.0073,0.0063,0.0079,0.0095,0.0231,0.025,0.0154,0.0154,0.0362,0.0385,0.0406,0.0548,0.0487,0.0498,0.0504,0.0877,0.0881,0.0884,0,0,0,0,0,0,-0.0176,-0.016,0.0004,-0.0049,-0.0024,0.0067,0.0086,0.01,0.0142,0.0256,0.0274,0.018,0.0362,0.039,0.0532,0.0557,0.0503,0.0513,0.0873,0.0878,0.0883,0.0829,0,0,0,0,0,0,-0.0183,-0.0163,-0.015,-0.0052,-0.0022,0.0106,0.0088,0.0106,0.0163,0.0164,0.0286,0.0305,0.0362,0.0515,0.0543,0.0571,0.0522,0.0868,0.0875,0.0881,0.0827,0.0832,0.0836,0,0,0,0,0,-0.0191,-0.0158,-0.0151,-0.0132,-0.0011,0.0109,0.0131,0.0187,0.0166,0.021,0.029,0.0301,0.0574,0.0528,0.056,0.0592,0.0865,0.0873,0.0881,0.0824,0.0831,0.0836,0,0,0,0,0,0,-0.0225,-0.0147,-0.0139,-0.0082,0.0009,0.0116,0.0165,0.0192,0.0288,0.0282,0.0361,0.0391,0.0515,0.0583,0.0529,0.0726,0.0717,0.0731,0.0663,0.067,0.0675,0.0614,0.0531,0,0,0,0,0,-0.0231,-0.0187,-0.01,-0.0044,-0.0013,0.007,0.0124,0.0163,0.0257,0.0294,0.0385,0.0482,0.0578,0.0643,0.0746,0.0873,0.087,0.0914,0.0919,0.0922,0.0899,0.0932,0.0935,0.091,0.0909,0.0909,0,0,-0.022,-0.0172,-0.0143,-0.0047,0.0015,0.0085,0.0097,0.0184,0.0243,0.0311,0.0429,0.0507,0.0616,0.0742,0.0804,0.0799,0.0929,0.0931,0.0932,0.0908,0.094,0.0941,0.0942,0.0915,0.0914,0.0913,0,0,-0.0163,-0.0148,-0.0092,-0.0033,0.0061,0.0112,0.0131,0.0243,0.0285,0.0422,0.046,0.0556,0.074,0.0802,0.0856,0.0962,0.0948,0.1,0.0981,0.1014,0.1013,0.1013,0.0992,0.0991,0.1007,0.1007,0.1007,0,-0.015,-0.0108,-0.0047,0.0013,0.0038,0.0114,0.0158,0.0244,0.0395,0.0421,0.0459,0.0664,0.0761,0.0858,0.0893,0.0965,0.0958,0.0937,0.101,0.1011,0.1011,0.099,0.0989,0.1005,0.1005,0.1006,0.1006,0,-0.005,-0.0042,-0.0006,0.0068,0.0128,0.0174,0.0268,0.0338,0.0388,0.0459,0.0574,0.071,0.0807,0.0869,0.0919,0.0977,0.0959,0.0997,0.0969,0.1009,0.0987,0.0986,0.1003,0.1003,0.1004,0.1004,0,0,0.0014,0.0045,0.005,0.0016,0.0122,0.016,0.0262,0.0339,0.0354,0.0521,0.055,0.0737,0.0766,0.083,0.09,0.0949,0.0958,0.0969,0.0972,0.0899,0.0977,0.0958,0.0955,0.0994,0.0995,0.0995,0.0949,0,0.0049,0.006,0.0114,0.0119,0.0094,0.0164,0.0237,0.0325,0.0406,0.0477,0.0595,0.0673,0.0766,0.0788,0.0858,0.0932,0.0958,0.0963,0.0992,0.0992,0.0931,0.0956,0.1015,0.0979,0.0948,0.0948,0.0948,0,0.0102,0.0074,0.0041,0.0002,0.0009,0.0054,0.0075,0.0163,0.0292,0.0355,0.0454,0.0548,0.0651,0.0719,0.0843,0.0834,0.0891,0.0952,0.0953,0.0946,0.0973,0.0947,0.0979,0.1145,0.0947,0.0947,0.0947,0,-0.0005,0.0006,-0.0075,-0.0078,-0.0054,-0.0056,-0.0014,0.01,0.0138,0.0253,0.028,0.0431,0.0478,0.0602,0.0743,0.0784,0.0846,0.0922,0.095,0.0947,0.101,0.1012,0.1165,0.0981,0.0982,0.0982,0.0982,0,-0.0068,-0.0122,-0.0156,-0.0208,-0.0274,-0.0196,-0.0209,-0.0135,-0.0034,-0.0003,0.0178,0.0215,0.045,0.0536,0.0677,0.0789,0.079,0.0926,0.094,0.0995,0.0997,0.1154,0.1226,0.098,0.098,0.0981,0.0981,0,-0.0196,-0.0208,-0.0317,-0.0348,-0.0348,-0.0405,-0.0344,-0.0328,-0.0231,-0.0192,-0.0166,0.0027,0.0157,0.0358,0.0537,0.0673,0.089,0.0828,0.0846,0.0864,0.1086,0.1151,0.1243,0.1337,0.0875,0.0874,0.0874,0,-0.0266,-0.0354,-0.0455,-0.0502,-0.0524,-0.0563,-0.0548,-0.0447,-0.0415,-0.0309,-0.0298,-0.017,-0.0036,0.0205,0.0469,0.0685,0.0837,0.083,0.0952,0.1088,0.1173,0.1212,0.1289,0.1008,0.1009,0.1009,0.101,0,-0.0418,-0.0471,-0.0561,-0.0662,-0.0699,-0.073,-0.0711,-0.0718,-0.059,-0.0546,-0.0464,-0.0361,-0.0087,0.0231,0.05,0.0641,0.0969,0.0845,0.1014,0.1302,0.1327,0.1427,0.1005,0.1014,0.1013,0.1013,0.1013,0.1013,-0.0513,-0.0618,-0.0717,-0.0797,-0.0842,-0.0862,-0.0872,-0.0824,-0.079,-0.0613,-0.0551,-0.0254,0.0094,0.0531,0.0672,0.1035,0.1011,0.119,0.1254,0.1274,0.1396,0.094,0.0954,0.0953,0.0953,0.0952,0.0952,0,-0.0584,-0.0681,-0.08,-0.0894,-0.0942,-0.0926,-0.0929,-0.0888,-0.0841,-0.0549,-0.0387,0.015,0.0512,0.0879,0.1294,0.147,0.1549,0.1547,0.1674,0.1735,0.137,0.1412,0.1492,0.1492,0.1492,0.1492,0.1491,0.1491,-0.0612,-0.0742,-0.0804,-0.0922,-0.097,-0.0974,-0.0966,-0.089,-0.0681,-0.0228,0.0239,0.0572,0.0964,0.1489,0.1864,0.189,0.209,0.2024,0.2114,0.1936,0.191,0.1886,0.1947,0.2137,0.2138,0.2504,0.2508,0.2511]}],[{"header":{"parameterUnit":"m.s-1","parameterCategory":2,"la1":30.2991,"la2":30.254,"lo1":-89.0895,"lo2":-89.0444,"dy":0.0017,"dx":0.0017,"nx":28,"ny":28,"refTime":"2024-02-15T09:00:00:Z","depth":"2","parameterNumber":2,"parameterNumberName":"U-component_of_CURRENTS"},"data":[0,0,0,0,0,0,0,0,0,0,0,0,0,0,0,0,0,0,0,0,0,0,0,0,0,0,0,0,0,0,0,0,0,0,0,0,0,0,0,0,0,0,0,0,0,0,0,0,0,0,0,0,0,0,0,0,0,0,-0.2389,-0.239,0,-0.2421,-0.2421,-0.2421,-0.245,-0.245,-0.2451,-0.2451,-0.2453,-0.2452,-0.2452,0,0,0,0,0,0,0,0,0,0,0,0,0,-0.2337,-0.2338,-0.2389,-0.239,-0.239,-0.2421,-0.2421,-0.2422,-0.245,-0.245,-0.2451,-0.2451,-0.2453,-0.2452,-0.2452,0,0,0,0,0,0,0,0,0,0,0,0,0,-0.2362,-0.2338,-0.2389,-0.2409,-0.2411,-0.2421,-0.2421,-0.2422,-0.245,-0.245,-0.2451,-0.2451,-0.2453,-0.2452,-0.2452,-0.2437,0,0,-0.245,-0.245,0,0,0,0,0,0,0,0,-0.2361,-0.2364,-0.2405,-0.2407,-0.241,-0.2433,-0.2403,-0.2425,-0.2449,-0.2434,-0.2451,-0.2452,-0.2443,-0.2444,-0.2447,-0.2437,-0.2437,-0.245,-0.245,-0.245,-0.245,0,0,0,0,0,0,0,-0.2359,-0.2363,-0.2401,-0.2406,-0.2409,-0.241,-0.2414,-0.2408,-0.2434,-0.2435,-0.2438,-0.2442,-0.2444,-0.2448,-0.2448,-0.2437,-0.245,-0.245,-0.245,-0.2449,-0.2444,-0.2444,0,0,0,0,0,0,-0.2357,-0.2361,-0.24,-0.2402,-0.2387,-0.2411,-0.2415,-0.2424,-0.2434,-0.2437,-0.2442,-0.2444,-0.2448,-0.2448,-0.2448,-0.2485,-0.245,-0.2449,-0.2449,-0.2444,-0.2444,-0.2444,0,0,0,0,0,0,-0.2356,-0.236,-0.2399,-0.2383,-0.2388,-0.2411,-0.242,-0.2424,-0.2441,-0.244,-0.2442,-0.2455,-0.2449,-0.2448,-0.245,-0.2483,-0.2449,-0.2449,-0.2444,-0.2444,-0.2444,-0.2525,0,0,0,0,0,0,-0.2354,-0.236,-0.2362,-0.2383,-0.2389,-0.2418,-0.242,-0.2425,-0.2442,-0.2445,-0.2452,-0.2452,-0.2449,-0.2451,-0.245,-0.2482,-0.2448,-0.2443,-0.2444,-0.2444,-0.2522,-0.2528,-0.2533,0,0,0,0,0,-0.2352,-0.235,-0.2362,-0.2367,-0.2393,-0.2419,-0.2423,-0.244,-0.2442,-0.2455,-0.2453,-0.2452,-0.2452,-0.245,-0.2449,-0.2482,-0.2443,-0.2444,-0.2444,-0.2519,-0.2527,-0.2532,0,0,0,0,0,0,-0.2334,-0.2354,-0.2367,-0.2374,-0.2403,-0.2424,-0.2426,-0.2444,-0.2453,-0.2449,-0.2451,-0.2452,-0.2474,-0.2452,-0.245,-0.2477,-0.2448,-0.2448,-0.2506,-0.2513,-0.2518,-0.2514,-0.2448,0,0,0,0,0,-0.233,-0.2323,-0.2364,-0.2364,-0.2381,-0.2406,-0.2416,-0.2434,-0.2445,-0.2451,-0.2456,-0.2455,-0.2471,-0.2471,-0.2474,-0.2478,-0.2442,-0.2496,-0.2502,-0.2507,-0.2499,-0.2534,-0.2543,-0.2445,-0.2445,-0.2445,0,0,-0.2326,-0.2328,-0.233,-0.2358,-0.2374,-0.2407,-0.2414,-0.2431,-0.2464,-0.2446,-0.2473,-0.2478,-0.2477,-0.2498,-0.2504,-0.2484,-0.2495,-0.2507,-0.2512,-0.2502,-0.2536,-0.2546,-0.2554,-0.2446,-0.2446,-0.2446,0,0,-0.2301,-0.2317,-0.231,-0.2344,-0.2371,-0.2394,-0.2406,-0.244,-0.2463,-0.2494,-0.2494,-0.2512,-0.2525,-0.2536,-0.2544,-0.2572,-0.2532,-0.257,-0.2591,-0.2626,-0.2635,-0.2643,-0.2527,-0.2525,-0.2565,-0.2565,-0.2565,0,-0.229,-0.2301,-0.2315,-0.2333,-0.2365,-0.2395,-0.2427,-0.2457,-0.2487,-0.2509,-0.2512,-0.2555,-0.2552,-0.2591,-0.2597,-0.259,-0.2549,-0.2575,-0.2636,-0.2644,-0.2651,-0.2531,-0.2527,-0.2569,-0.2569,-0.2568,-0.2568,0,-0.2272,-0.2304,-0.2305,-0.234,-0.2376,-0.2403,-0.2462,-0.249,-0.2523,-0.2558,-0.2612,-0.2619,-0.2645,-0.2652,-0.2633,-0.2675,-0.2604,-0.2652,-0.2628,-0.2666,-0.2535,-0.253,-0.2575,-0.2573,-0.2572,-0.2571,0,0,-0.2201,-0.2275,-0.2285,-0.2324,-0.2389,-0.2418,-0.2473,-0.2537,-0.2571,-0.2625,-0.2672,-0.2713,-0.2721,-0.2725,-0.2716,-0.2729,-0.2712,-0.27,-0.27,-0.2595,-0.2677,-0.26,-0.2584,-0.279,-0.2792,-0.2793,-0.2537,0,-0.2188,-0.2235,-0.2276,-0.2345,-0.2389,-0.2452,-0.2505,-0.2567,-0.2613,-0.2659,-0.2707,-0.275,-0.2752,-0.2761,-0.2786,-0.2722,-0.2713,-0.2768,-0.2645,-0.2638,-0.258,-0.2585,-0.2421,-0.2182,-0.2531,-0.253,-0.2529,0,-0.2159,-0.2205,-0.2268,-0.2373,-0.2397,-0.2439,-0.2525,-0.2583,-0.266,-0.2696,-0.2757,-0.2784,-0.2785,-0.2815,-0.2749,-0.2782,-0.2736,-0.2695,-0.2687,-0.2591,-0.2556,-0.2215,-0.2157,-0.2519,-0.252,-0.252,-0.2521,0,-0.2104,-0.2201,-0.225,-0.2291,-0.2406,-0.2443,-0.2507,-0.2591,-0.2615,-0.2718,-0.2713,-0.2778,-0.2751,-0.2767,-0.2685,-0.2717,-0.2594,-0.2635,-0.2514,-0.25,-0.2321,-0.2293,-0.2639,-0.2639,-0.264,-0.264,-0.2641,0,-0.2065,-0.2119,-0.2233,-0.227,-0.233,-0.2431,-0.2505,-0.2553,-0.2609,-0.2615,-0.2724,-0.2702,-0.2751,-0.2693,-0.2664,-0.2527,-0.2583,-0.249,-0.246,-0.2332,-0.231,-0.2599,-0.2598,-0.2631,-0.2633,-0.2635,-0.2636,0,-0.1998,-0.2069,-0.2148,-0.2275,-0.2304,-0.2359,-0.2467,-0.2469,-0.256,-0.2553,-0.2571,-0.2584,-0.2515,-0.2515,-0.2467,-0.2437,-0.2371,-0.2335,-0.2104,-0.2056,-0.223,-0.2236,-0.2122,-0.2118,-0.2114,-0.2111,-0.2109,0,-0.1972,-0.2001,-0.2132,-0.2138,-0.2189,-0.2297,-0.2302,-0.242,-0.2407,-0.2464,-0.2389,-0.2367,-0.2323,-0.219,-0.2161,-0.2068,-0.2219,-0.1884,-0.1971,-0.2209,-0.2192,-0.2203,-0.2213,-0.1693,-0.1687,-0.1683,-0.1679,0,-0.192,-0.1963,-0.2007,-0.2025,-0.2033,-0.2088,-0.2125,-0.2124,-0.2226,-0.2213,-0.2164,-0.2153,-0.2047,-0.1899,-0.1821,-0.1777,-0.1894,-0.1786,-0.2111,-0.1895,-0.1799,-0.1785,-0.1809,-0.1638,-0.1642,-0.1645,-0.1647,-0.1649,-0.1852,-0.186,-0.1876,-0.1874,-0.1867,-0.1835,-0.186,-0.1881,-0.1876,-0.1844,-0.1908,-0.1826,-0.1807,-0.1593,-0.1507,-0.1448,-0.1593,-0.1551,-0.1568,-0.1589,-0.1631,-0.1542,-0.1327,-0.1329,-0.1331,-0.1333,-0.1334,0,-0.1749,-0.1719,-0.1703,-0.1687,-0.1601,-0.1664,-0.1657,-0.1647,-0.1617,-0.1595,-0.1577,-0.1409,-0.1297,-0.1286,-0.1121,-0.1101,-0.1117,-0.1068,-0.1095,-0.1136,-0.1172,-0.1198,-0.0775,-0.0773,-0.0772,-0.077,0,0,-0.1646,-0.1574,-0.1556,-0.1393,-0.1384,-0.1275,-0.1266,-0.1252,-0.1242,-0.1186,-0.1139,-0.1211,-0.1233,-0.1,-0.095,-0.0829,-0.0975,-0.0786,-0.1233,-0.1303,-0.1337,-0.1443,-0.1527,0,0,0,0,0]},{"header":{"parameterUnit":"m.s-1","parameterCategory":2,"la1":30.2991,"la2":30.254,"lo1":-89.0895,"lo2":-89.0444,"dy":0.0017,"dx":0.0017,"nx":28,"ny":28,"refTime":"2024-02-15T09:00:00:Z","depth":"2","parameterNumber":3,"parameterNumberName":"V-component_of_CURRENTS"},"data":[0,0,0,0,0,0,0,0,0,0,0,0,0,0,0,0,0,0,0,0,0,0,0,0,0,0,0,0,0,0,0,0,0,0,0,0,0,0,0,0,0,0,0,0,0,0,0,0,0,0,0,0,0,0,0,0,0,0,-0.0417,-0.0415,0,-0.0332,-0.0332,-0.0331,-0.027,-0.027,-0.0269,-0.0268,-0.0113,-0.0109,-0.0106,0,0,0,0,0,0,0,0,0,0,0,0,0,-0.0477,-0.0476,-0.0417,-0.0415,-0.0414,-0.0332,-0.0332,-0.0331,-0.0271,-0.027,-0.0269,-0.0268,-0.0114,-0.011,-0.0106,0,0,0,0,0,0,0,0,0,0,0,0,0,-0.043,-0.0476,-0.0417,-0.0372,-0.0367,-0.0333,-0.0331,-0.033,-0.0271,-0.027,-0.0269,-0.0268,-0.0115,-0.011,-0.0105,-0.0095,0,0,-0.0089,-0.0087,0,0,0,0,0,0,0,0,-0.0433,-0.0428,-0.038,-0.0375,-0.037,-0.0309,-0.0295,-0.0247,-0.0271,-0.031,-0.0268,-0.0267,-0.0171,-0.0161,-0.0152,-0.0087,-0.0081,-0.0089,-0.0085,-0.0083,-0.0082,0,0,0,0,0,0,0,-0.0436,-0.0431,-0.0386,-0.0379,-0.0372,-0.034,-0.0333,-0.0286,-0.0248,-0.0307,-0.0301,-0.0288,-0.0167,-0.0157,-0.0148,-0.0078,-0.0089,-0.0084,-0.0081,-0.0079,-0.0,-0.0001,0,0,0,0,0,0,-0.0445,-0.0435,-0.0388,-0.0383,-0.0396,-0.0339,-0.0332,-0.0331,-0.025,-0.0236,-0.0289,-0.0286,-0.0167,-0.0154,-0.0142,-0.0096,-0.0083,-0.0078,-0.0075,0.0001,-0.0,-0.0002,0,0,0,0,0,0,-0.0447,-0.0443,-0.0392,-0.0404,-0.0395,-0.034,-0.034,-0.033,-0.0312,-0.0237,-0.0223,-0.0279,-0.0165,-0.0149,-0.0096,-0.009,-0.0076,-0.0071,0.0002,0.0,-0.0001,-0.0022,0,0,0,0,0,0,-0.0449,-0.0444,-0.0451,-0.0405,-0.0394,-0.0373,-0.034,-0.0329,-0.0304,-0.0299,-0.0224,-0.0209,-0.0163,-0.0104,-0.0091,-0.0083,-0.0067,0.0003,0.0001,-0.0,-0.002,-0.0024,-0.0027,0,0,0,0,0,-0.0452,-0.0464,-0.0452,-0.0446,-0.0405,-0.0373,-0.0365,-0.0323,-0.0305,-0.0302,-0.0248,-0.0211,-0.0107,-0.01,-0.0084,-0.0075,0.0004,0.0002,-0.0,-0.0018,-0.0023,-0.0027,0,0,0,0,0,0,-0.0491,-0.0458,-0.0444,-0.0445,-0.0412,-0.0362,-0.0356,-0.0327,-0.0285,-0.0278,-0.0209,-0.0191,-0.0142,-0.0117,-0.0111,-0.0065,-0.0051,-0.0051,-0.0071,-0.0074,-0.0078,-0.0082,-0.0063,0,0,0,0,0,-0.0506,-0.0509,-0.0465,-0.0467,-0.0454,-0.0407,-0.039,-0.0362,-0.0316,-0.0297,-0.0245,-0.0196,-0.0144,-0.0115,-0.0072,-0.004,-0.0003,-0.0033,-0.0037,-0.004,-0.0037,0.0065,0.0073,-0.0009,-0.0009,-0.0009,0,0,-0.052,-0.0504,-0.0504,-0.0476,-0.0451,-0.0443,-0.0395,-0.0373,-0.0358,-0.0285,-0.0254,-0.0199,-0.0139,-0.0099,-0.0078,-0.0073,-0.0014,-0.0043,-0.0045,-0.004,0.0064,0.0073,0.008,-0.0011,-0.001,-0.001,0,0,-0.0561,-0.0539,-0.0559,-0.0536,-0.0501,-0.0469,-0.0464,-0.0416,-0.0384,-0.0349,-0.0289,-0.0224,-0.0173,-0.0109,-0.0073,-0.0075,-0.0032,-0.0085,-0.01,-0.0002,0.0007,0.0016,0.0011,0.002,-0.009,-0.009,-0.009,0,-0.0583,-0.06,-0.0558,-0.0567,-0.0551,-0.0486,-0.0495,-0.0455,-0.0394,-0.0361,-0.0348,-0.0231,-0.017,-0.009,-0.0094,-0.0075,-0.0055,-0.008,-0.0001,0.0008,0.0017,0.0011,0.0021,-0.0091,-0.0091,-0.0091,-0.0091,0,-0.0638,-0.0644,-0.0651,-0.0644,-0.062,-0.0614,-0.0551,-0.0524,-0.048,-0.0427,-0.0345,-0.0256,-0.0182,-0.016,-0.0123,-0.0039,-0.0062,-0.0009,0.002,0.0025,0.0016,0.0027,-0.0093,-0.0092,-0.0092,-0.0092,0,0,-0.0698,-0.0696,-0.0696,-0.0702,-0.0658,-0.0642,-0.0613,-0.0557,-0.0523,-0.0451,-0.039,-0.0289,-0.0225,-0.0183,-0.0115,-0.0034,0.0038,-0.0008,-0.0002,0.0,0.0178,0.0203,0.0216,0.0113,0.0116,0.0118,0.0123,0,-0.0754,-0.0801,-0.0771,-0.0789,-0.0799,-0.0727,-0.0697,-0.063,-0.0564,-0.0488,-0.0362,-0.028,-0.0237,-0.0188,-0.0098,0.0005,0.0073,0.0026,0.0159,0.0161,0.0199,0.0235,0.0214,0.0223,0.0134,0.0136,0.0137,0,-0.0808,-0.0835,-0.0878,-0.0854,-0.0847,-0.0843,-0.0775,-0.0734,-0.0604,-0.0549,-0.0441,-0.0334,-0.0213,-0.0155,0.0012,-0.0027,0.0072,0.0151,0.0155,0.0203,0.0211,0.0215,0.0246,0.0155,0.0154,0.0153,0.0151,0,-0.0869,-0.0891,-0.0932,-0.0927,-0.0898,-0.0892,-0.0859,-0.0757,-0.07,-0.0573,-0.0517,-0.0366,-0.0272,-0.0129,0.003,0.0025,0.0216,0.0237,0.0343,0.034,0.0363,0.0359,0.0396,0.0396,0.0396,0.0396,0.0396,0,-0.0925,-0.0947,-0.0969,-0.099,-0.1009,-0.0952,-0.0921,-0.0875,-0.0759,-0.0681,-0.0544,-0.045,-0.0246,-0.0102,0.002,0.0195,0.0211,0.0345,0.0375,0.0344,0.0339,0.0327,0.0319,0.0396,0.0396,0.0396,0.0396,0,-0.0965,-0.0983,-0.103,-0.1042,-0.1042,-0.1049,-0.0976,-0.0931,-0.0842,-0.0737,-0.0689,-0.0502,-0.0334,-0.0148,0.0084,0.0186,0.0351,0.0427,0.0323,0.0344,0.0386,0.0376,0.0502,0.0504,0.0505,0.0506,0.0507,0,-0.0987,-0.1026,-0.1084,-0.1101,-0.1111,-0.1099,-0.1069,-0.0988,-0.0929,-0.0764,-0.0711,-0.0513,-0.035,-0.0057,0.0166,0.0367,0.0401,0.0472,0.05,0.0396,0.0412,0.04,0.0388,0.0471,0.0472,0.0473,0.0473,0,-0.1028,-0.1059,-0.1101,-0.1153,-0.1161,-0.1144,-0.1104,-0.1073,-0.0946,-0.0856,-0.07,-0.0556,-0.026,-0.0006,0.0268,0.0384,0.0426,0.0489,0.0463,0.0462,0.0374,0.0386,0.0375,0.0477,0.0477,0.0477,0.0476,0.0476,-0.1051,-0.1096,-0.1153,-0.1187,-0.1194,-0.1172,-0.1146,-0.1077,-0.0986,-0.0822,-0.0698,-0.0475,-0.0234,0.0164,0.0351,0.0509,0.0505,0.0551,0.0547,0.0543,0.0553,0.0476,0.0592,0.0592,0.0592,0.0592,0.0593,0,-0.1076,-0.1118,-0.1161,-0.12,-0.1192,-0.1192,-0.1141,-0.1082,-0.0984,-0.082,-0.0647,-0.0353,-0.0064,0.0165,0.0433,0.0596,0.0572,0.0607,0.0555,0.055,0.0546,0.0555,0.0595,0.0595,0.0595,0.0596,0,0,-0.1087,-0.1138,-0.1164,-0.1176,-0.1184,-0.1163,-0.1135,-0.1053,-0.0936,-0.0749,-0.0577,-0.0344,-0.0057,0.014,0.0343,0.0478,0.0461,0.0477,0.0458,0.0367,0.036,0.0498,0.0505,0,0,0,0,0]}],[{"header":{"parameterUnit":"m.s-1","parameterCategory":2,"la1":30.2991,"la2":30.254,"lo1":-89.0895,"lo2":-89.0444,"dy":0.0017,"dx":0.0017,"nx":28,"ny":28,"refTime":"2024-02-15T09:00:00:Z","depth":"4","parameterNumber":2,"parameterNumberName":"U-component_of_CURRENTS"},"data":[0,0,0,0,0,0,0,0,0,0,0,0,0,0,0,0,0,0,0,0,0,0,0,0,0,0,0,0,0,0,0,0,0,0,0,0,0,0,0,0,0,0,0,0,0,0,0,0,0,0,0,0,0,0,0,0,0,0,-0.1433,-0.1433,0,-0.1457,-0.1457,-0.1457,-0.1502,-0.1503,-0.1504,-0.1505,-0.1522,-0.1522,-0.1521,0,0,0,0,0,0,0,0,0,0,0,0,0,-0.1391,-0.1392,-0.1433,-0.1433,-0.1434,-0.1457,-0.1457,-0.1457,-0.1502,-0.1503,-0.1504,-0.1505,-0.1522,-0.1522,-0.1521,0,0,0,0,0,0,0,0,0,0,0,0,0,-0.1411,-0.1392,-0.1433,-0.1459,-0.1462,-0.1457,-0.1457,-0.1457,-0.1502,-0.1503,-0.1505,-0.1506,-0.1522,-0.1522,-0.1521,-0.1488,0,0,-0.1519,-0.1519,0,0,0,0,0,0,0,0,-0.141,-0.1412,-0.1455,-0.1458,-0.1461,-0.1479,-0.1449,-0.1468,-0.1501,-0.1485,-0.1505,-0.1507,-0.1507,-0.1507,-0.1507,-0.1489,-0.1489,-0.1519,-0.1519,-0.1518,-0.1518,0,0,0,0,0,0,0,-0.1408,-0.1411,-0.1441,-0.1455,-0.1459,-0.1459,-0.1463,-0.1452,-0.1487,-0.1487,-0.1491,-0.1495,-0.1508,-0.1508,-0.1508,-0.149,-0.1519,-0.1518,-0.1518,-0.1518,-0.1538,-0.1539,0,0,0,0,0,0,-0.1408,-0.141,-0.144,-0.1442,-0.1439,-0.1458,-0.1463,-0.1471,-0.1487,-0.1491,-0.1493,-0.1497,-0.1508,-0.1509,-0.1509,-0.1546,-0.1518,-0.1518,-0.1517,-0.1537,-0.1538,-0.1539,0,0,0,0,0,0,-0.1407,-0.141,-0.1439,-0.1427,-0.1431,-0.1458,-0.1465,-0.147,-0.1502,-0.1492,-0.1496,-0.1524,-0.1509,-0.151,-0.1528,-0.1544,-0.1517,-0.1517,-0.1536,-0.1538,-0.1539,-0.1572,0,0,0,0,0,0,-0.1405,-0.141,-0.1428,-0.1427,-0.1432,-0.1456,-0.1464,-0.147,-0.1501,-0.1506,-0.1519,-0.152,-0.151,-0.1529,-0.1527,-0.1543,-0.1516,-0.1535,-0.1537,-0.1538,-0.157,-0.1575,-0.1579,0,0,0,0,0,-0.1404,-0.1407,-0.1429,-0.1433,-0.1452,-0.1456,-0.1459,-0.1481,-0.1501,-0.1516,-0.1529,-0.1522,-0.1539,-0.1529,-0.1527,-0.1543,-0.1534,-0.1536,-0.1538,-0.1568,-0.1574,-0.1579,0,0,0,0,0,0,-0.1394,-0.1412,-0.1436,-0.1446,-0.1465,-0.1465,-0.1475,-0.1497,-0.1518,-0.1529,-0.1528,-0.1529,-0.1553,-0.1544,-0.1532,-0.1556,-0.1537,-0.1539,-0.1561,-0.1566,-0.157,-0.1578,-0.1516,0,0,0,0,0,-0.1402,-0.1413,-0.1434,-0.1444,-0.1454,-0.1474,-0.1485,-0.1504,-0.1515,-0.1528,-0.1534,-0.1544,-0.1553,-0.1559,-0.1559,-0.1565,-0.1561,-0.1577,-0.1581,-0.1585,-0.1592,-0.1605,-0.1611,-0.1546,-0.1546,-0.1546,0,0,-0.1397,-0.1412,-0.1418,-0.1445,-0.1457,-0.1472,-0.1485,-0.1504,-0.1525,-0.1523,-0.155,-0.1558,-0.1559,-0.1572,-0.1582,-0.1571,-0.16,-0.1588,-0.1591,-0.1595,-0.1607,-0.1614,-0.1619,-0.1548,-0.1548,-0.1547,0,0,-0.1379,-0.1412,-0.1414,-0.1435,-0.1466,-0.1481,-0.1497,-0.1516,-0.1538,-0.1561,-0.1571,-0.1593,-0.1598,-0.1604,-0.1607,-0.1635,-0.1625,-0.1641,-0.1666,-0.1678,-0.1684,-0.1688,-0.1684,-0.1688,-0.1641,-0.1641,-0.1641,0,-0.1378,-0.1391,-0.1416,-0.1427,-0.1448,-0.1491,-0.1505,-0.1527,-0.1554,-0.1572,-0.1578,-0.1612,-0.1611,-0.1637,-0.1651,-0.1644,-0.1648,-0.1644,-0.1684,-0.1688,-0.1692,-0.1687,-0.1691,-0.1643,-0.1642,-0.1642,-0.1642,0,-0.1354,-0.1385,-0.1385,-0.1424,-0.1449,-0.1466,-0.1506,-0.1539,-0.1574,-0.1596,-0.1639,-0.1643,-0.1668,-0.1671,-0.1669,-0.1704,-0.1696,-0.1689,-0.1669,-0.1701,-0.1693,-0.1697,-0.1645,-0.1645,-0.1644,-0.1644,0,0,-0.1298,-0.1359,-0.1365,-0.1396,-0.1455,-0.1468,-0.1514,-0.1562,-0.1598,-0.1632,-0.1665,-0.1694,-0.1715,-0.1721,-0.1727,-0.1737,-0.1764,-0.1732,-0.1732,-0.1725,-0.1789,-0.167,-0.1662,-0.177,-0.1771,-0.1772,-0.1769,0,-0.128,-0.1306,-0.1345,-0.1387,-0.1407,-0.1473,-0.1509,-0.1563,-0.1611,-0.165,-0.1683,-0.1716,-0.173,-0.1749,-0.1766,-0.1766,-0.1777,-0.1765,-0.1762,-0.1761,-0.1649,-0.1663,-0.1775,-0.1771,-0.1772,-0.1773,-0.1773,0,-0.1244,-0.1273,-0.1308,-0.1385,-0.1399,-0.1436,-0.1519,-0.156,-0.1633,-0.1666,-0.1722,-0.175,-0.179,-0.1785,-0.182,-0.1817,-0.1813,-0.1805,-0.1805,-0.1686,-0.1649,-0.1735,-0.1779,-0.1779,-0.1778,-0.1778,-0.1778,0,-0.1189,-0.1251,-0.1285,-0.1309,-0.1393,-0.1432,-0.1486,-0.1567,-0.1605,-0.1688,-0.1719,-0.1777,-0.1809,-0.1824,-0.1841,-0.1834,-0.1858,-0.1839,-0.1728,-0.172,-0.1814,-0.1809,-0.1857,-0.1857,-0.1858,-0.1858,-0.1858,0,-0.1152,-0.1181,-0.1268,-0.1286,-0.1321,-0.1406,-0.145,-0.152,-0.1606,-0.1653,-0.1732,-0.1767,-0.1826,-0.1853,-0.1849,-0.1802,-0.1873,-0.1731,-0.1711,-0.1827,-0.1823,-0.1815,-0.1811,-0.1857,-0.1857,-0.1857,-0.1857,0,-0.1085,-0.1147,-0.1182,-0.1271,-0.1296,-0.1326,-0.1415,-0.1456,-0.1558,-0.1624,-0.1656,-0.1766,-0.1796,-0.183,-0.1847,-0.18,-0.1768,-0.1737,-0.186,-0.1848,-0.1614,-0.1611,-0.1586,-0.1582,-0.1578,-0.1575,-0.1573,0,-0.1056,-0.1069,-0.1144,-0.1155,-0.1199,-0.1248,-0.1287,-0.141,-0.1465,-0.1614,-0.1645,-0.1718,-0.1769,-0.1694,-0.1741,-0.1704,-0.169,-0.1668,-0.1633,-0.1603,-0.1587,-0.159,-0.1592,-0.1567,-0.1566,-0.1565,-0.1564,0,-0.0985,-0.1018,-0.1035,-0.1061,-0.1105,-0.1145,-0.1227,-0.1253,-0.1415,-0.1506,-0.158,-0.1596,-0.1618,-0.1617,-0.1606,-0.1586,-0.1673,-0.163,-0.1636,-0.1603,-0.158,-0.1568,-0.1574,-0.1552,-0.1554,-0.1555,-0.1556,0,-0.0917,-0.0904,-0.0933,-0.0939,-0.1001,-0.1059,-0.11,-0.118,-0.1248,-0.144,-0.1455,-0.1535,-0.1617,-0.1556,-0.1552,-0.1512,-0.1473,-0.1426,-0.1442,-0.1456,-0.1412,-0.1364,-0.1248,0,0,0,0,0,-0.0844,-0.0812,-0.0812,-0.0836,-0.0907,-0.0954,-0.1076,-0.1138,-0.1288,-0.1305,-0.1382,-0.14,-0.1395,-0.1429,-0.1352,-0.1465,-0.1468,-0.137,-0.1422,-0.1483,-0.1498,-0.1456,0,0,0,0,0,0,-0.079,-0.078,-0.0767,-0.0761,-0.0773,-0.0863,-0.0947,-0.1054,-0.1067,-0.1209,-0.1203,-0.1298,-0.1294,-0.1401,-0.1314,-0.1321,-0.1323,-0.1411,-0.1407,-0.1475,-0.1488,-0.15,-0.1462,0,0,0,0,0]},{"header":{"parameterUnit":"m.s-1","parameterCategory":2,"la1":30.2991,"la2":30.254,"lo1":-89.0895,"lo2":-89.0444,"dy":0.0017,"dx":0.0017,"nx":28,"ny":28,"refTime":"2024-02-15T09:00:00:Z","depth":"4","parameterNumber":3,"parameterNumberName":"V-component_of_CURRENTS"},"data":[0,0,0,0,0,0,0,0,0,0,0,0,0,0,0,0,0,0,0,0,0,0,0,0,0,0,0,0,0,0,0,0,0,0,0,0,0,0,0,0,0,0,0,0,0,0,0,0,0,0,0,0,0,0,0,0,0,0,-0.038,-0.038,0,-0.0358,-0.0358,-0.0358,-0.0343,-0.0343,-0.0342,-0.0342,-0.0279,-0.0278,-0.0277,0,0,0,0,0,0,0,0,0,0,0,0,0,-0.0383,-0.0383,-0.038,-0.0379,-0.0379,-0.0358,-0.0358,-0.0358,-0.0343,-0.0343,-0.0342,-0.0342,-0.028,-0.0278,-0.0277,0,0,0,0,0,0,0,0,0,0,0,0,0,-0.0377,-0.0384,-0.038,-0.0366,-0.0364,-0.0358,-0.0358,-0.0358,-0.0343,-0.0343,-0.0342,-0.0341,-0.028,-0.0278,-0.0277,-0.0279,0,0,-0.0271,-0.027,0,0,0,0,0,0,0,0,-0.0378,-0.0378,-0.0369,-0.0367,-0.0365,-0.0349,-0.0336,-0.0328,-0.0344,-0.0355,-0.0342,-0.0341,-0.0297,-0.0294,-0.0297,-0.0276,-0.0273,-0.0271,-0.027,-0.0269,-0.0268,0,0,0,0,0,0,0,-0.0378,-0.0378,-0.0375,-0.0368,-0.0366,-0.0352,-0.0351,-0.0335,-0.0333,-0.0354,-0.0352,-0.0344,-0.0296,-0.0299,-0.0295,-0.0272,-0.0271,-0.0269,-0.0268,-0.0267,-0.0249,-0.025,0,0,0,0,0,0,-0.0375,-0.0379,-0.0376,-0.0374,-0.0365,-0.0352,-0.0351,-0.0358,-0.0333,-0.0328,-0.0345,-0.0343,-0.0303,-0.0298,-0.0293,-0.0298,-0.0269,-0.0267,-0.0266,-0.0249,-0.0249,-0.025,0,0,0,0,0,0,-0.0376,-0.0376,-0.0377,-0.0372,-0.037,-0.0353,-0.0361,-0.0358,-0.036,-0.0326,-0.0321,-0.0348,-0.0302,-0.0296,-0.0285,-0.0295,-0.0266,-0.0265,-0.0248,-0.0249,-0.025,-0.0305,0,0,0,0,0,0,-0.0376,-0.0377,-0.0386,-0.0372,-0.0371,-0.0382,-0.0361,-0.0358,-0.0354,-0.0352,-0.0327,-0.0321,-0.0301,-0.0289,-0.0284,-0.0292,-0.0263,-0.0247,-0.0248,-0.025,-0.0302,-0.0308,-0.0312,0,0,0,0,0,-0.0377,-0.0393,-0.0387,-0.0387,-0.0383,-0.0382,-0.0381,-0.0367,-0.0355,-0.0365,-0.0346,-0.0322,-0.0292,-0.0288,-0.0282,-0.029,-0.0247,-0.0248,-0.0249,-0.03,-0.0307,-0.0312,0,0,0,0,0,0,-0.0401,-0.0392,-0.0386,-0.0399,-0.0393,-0.0378,-0.0385,-0.0371,-0.0366,-0.0364,-0.033,-0.0324,-0.0318,-0.0298,-0.0293,-0.0288,-0.0265,-0.0266,-0.0306,-0.0312,-0.0317,-0.0325,-0.0262,0,0,0,0,0,-0.041,-0.0424,-0.0407,-0.0421,-0.0419,-0.0403,-0.0401,-0.0392,-0.038,-0.0377,-0.036,-0.0339,-0.0321,-0.0311,-0.0297,-0.0294,-0.025,-0.0295,-0.0301,-0.0305,-0.0308,-0.0263,-0.0264,-0.0255,-0.0255,-0.0255,0,0,-0.0425,-0.0421,-0.0429,-0.0428,-0.0423,-0.0432,-0.0402,-0.0406,-0.0416,-0.0371,-0.0384,-0.0357,-0.0324,-0.0324,-0.0319,-0.0307,-0.0279,-0.0307,-0.0311,-0.0311,-0.0264,-0.0265,-0.0265,-0.0256,-0.0256,-0.0256,0,0,-0.0458,-0.0457,-0.0476,-0.0474,-0.0467,-0.046,-0.0461,-0.0451,-0.0449,-0.0452,-0.042,-0.0401,-0.0382,-0.036,-0.0344,-0.0367,-0.0308,-0.0362,-0.0392,-0.0349,-0.0349,-0.0348,-0.0271,-0.0263,-0.0364,-0.0364,-0.0364,0,-0.0475,-0.0498,-0.0482,-0.0496,-0.0499,-0.0474,-0.0493,-0.0491,-0.0481,-0.0474,-0.0465,-0.0426,-0.04,-0.0382,-0.0391,-0.0378,-0.0331,-0.0372,-0.0354,-0.0353,-0.0352,-0.0273,-0.0264,-0.0367,-0.0366,-0.0366,-0.0366,0,-0.0516,-0.0535,-0.0547,-0.056,-0.0561,-0.0577,-0.0563,-0.0569,-0.0559,-0.0541,-0.0526,-0.0493,-0.0465,-0.0454,-0.043,-0.0409,-0.0369,-0.0365,-0.0339,-0.0356,-0.0271,-0.0261,-0.0371,-0.037,-0.0369,-0.0368,0,0,-0.0547,-0.0574,-0.0578,-0.0594,-0.0597,-0.0603,-0.062,-0.0618,-0.0616,-0.0604,-0.0591,-0.0566,-0.0533,-0.0513,-0.0477,-0.0441,-0.0384,-0.0404,-0.04,-0.0325,-0.0257,-0.0236,-0.0222,-0.0376,-0.0375,-0.0374,-0.0193,0,-0.0585,-0.0634,-0.0632,-0.0673,-0.0694,-0.0679,-0.0691,-0.0681,-0.0665,-0.0647,-0.0602,-0.0576,-0.0559,-0.0537,-0.0504,-0.0408,-0.0362,-0.0431,-0.0253,-0.0247,-0.0226,-0.0212,-0.0372,-0.0185,-0.0182,-0.018,-0.0179,0,-0.0615,-0.0648,-0.0702,-0.0726,-0.0732,-0.0754,-0.0758,-0.0762,-0.0724,-0.0706,-0.0673,-0.0622,-0.0562,-0.055,-0.041,-0.0453,-0.0365,-0.0295,-0.0286,-0.0244,-0.0208,-0.0168,-0.0159,-0.016,-0.0162,-0.0163,-0.0165,0,-0.0638,-0.0686,-0.0738,-0.0749,-0.0775,-0.0796,-0.0805,-0.0783,-0.077,-0.0736,-0.07,-0.064,-0.0574,-0.049,-0.034,-0.0371,-0.0165,-0.0188,-0.0083,-0.0079,-0.0126,-0.0129,-0.0095,-0.0095,-0.0095,-0.0096,-0.0097,0,-0.0667,-0.0702,-0.076,-0.0787,-0.0832,-0.0831,-0.0855,-0.0851,-0.0815,-0.0777,-0.073,-0.0668,-0.0556,-0.042,-0.0324,-0.0151,-0.0147,-0.0077,-0.0037,-0.015,-0.0158,-0.0116,-0.0121,-0.0089,-0.0091,-0.0092,-0.0093,0,-0.0672,-0.0713,-0.077,-0.0828,-0.0847,-0.0875,-0.0889,-0.0883,-0.0854,-0.0799,-0.0778,-0.0654,-0.0488,-0.0349,-0.0163,-0.0103,0.0039,0.01,0.0012,0.0043,0.0093,0.0083,0.0216,0.0218,0.022,0.0221,0.0223,0,-0.0677,-0.0715,-0.0802,-0.0834,-0.0868,-0.0909,-0.0919,-0.0912,-0.0887,-0.0778,-0.0732,-0.0565,-0.0472,-0.0167,-0.0062,0.0138,0.0147,0.0226,0.0102,0.0096,0.0122,0.011,0.0098,0.0225,0.0226,0.0226,0.0227,0,-0.0682,-0.0722,-0.0772,-0.0847,-0.0886,-0.0915,-0.0929,-0.0908,-0.0859,-0.0828,-0.0656,-0.0511,-0.0309,-0.0138,0.0039,0.0163,0.0164,0.0243,0.0239,0.0123,0.0109,0.0131,0.0117,0.0233,0.0232,0.0231,0.0231,0,-0.068,-0.0714,-0.0784,-0.084,-0.089,-0.09,-0.0914,-0.0856,-0.082,-0.0697,-0.0634,-0.0441,-0.0329,-0.0119,0.0035,0.0167,0.0159,0.0164,0.0163,0.0158,0.0059,0.0027,0.0172,0,0,0,0,0,-0.0671,-0.0705,-0.0762,-0.0825,-0.0872,-0.0899,-0.0897,-0.0893,-0.0844,-0.0714,-0.0671,-0.0485,-0.0242,-0.0135,0.0002,0.002,0.0154,0.018,0.0152,0.0267,0.026,0.0151,0,0,0,0,0,0,-0.0667,-0.0719,-0.0752,-0.0793,-0.0831,-0.0869,-0.0872,-0.0842,-0.0762,-0.0694,-0.0553,-0.0476,-0.0237,-0.0315,-0.0,0.0038,0.0032,0.0294,0.0296,0.0271,0.0265,0.0259,0.0145,0,0,0,0,0]}]]